#timestamp,LO_Frequency,Hit,StdDev 
1541869215.3,286046991.7,N
1541869235.2,286046994.8,N
1541869255.0,286046993.6,N
1541869255.9,286046993.6,N
1541869275.7,286046995.5,N
1541869295.6,286046995.2,N
1541869315.4,286046995.5,N
1541869335.3,286046993.9,N
1541869355.1,286046994.7,N
1541869356.0,286046994.7,N
1541869375.8,286046991.7,N
1541869395.7,286046994.5,N
1541869415.5,286046996.4,N
1541869435.3,286046993.9,N
1541869455.2,286046992.9,N
1541869475.0,286046991.6,N
1541869475.9,286046991.6,N
1541869495.8,286046990.3,Y
1541869515.6,286046995.8,P
1541869535.4,286046993.8,P
1541869555.3,286046994.9,P
1541869575.1,286046996.4,Y
1541869595.9,286047002.3,P
1541869615.7,286047005.2,N
1541869635.5,286047003.8,N
1541869655.4,286047003.1,N
1541869675.2,286047005.9,N
1541869695.0,286047003.1,N
1541869696.0,286047003.1,N
1541869715.8,286047005.6,N
1541869735.6,286047002.6,N
1541869755.5,286047004.1,N
1541869775.3,286047005.6,N
1541869795.1,286047005.4,N
1541869815.9,286047005.8,N
1541869835.7,286047003.2,N
1541869855.6,286047002.7,N
1541869875.4,286047001.4,N
1541869895.2,286047004.0,N
1541869915.1,286047002.7,N
1541869916.0,286047002.7,N
1541869935.8,286047000.4,N
1541869955.6,286047002.7,N
1541869975.5,286047000.0,N
1541869995.3,286047000.1,N
1541870015.2,286046999.9,N
1541870035.9,286046998.9,N
1541870055.7,286046997.3,N
1541870075.6,286046996.9,N
1541870095.4,286046998.3,N
1541870115.3,286046996.7,N
1541870135.1,286046998.9,N
1541870136.0,286046998.9,N
1541870155.8,286046998.4,N
1541870175.7,286046999.7,N
1541870195.5,286047001.4,N
1541870215.3,286047004.1,N
1541870235.2,286047003.1,N
1541870255.0,286047004.2,N
1541870255.9,286047004.2,N
1541870275.8,286047005.3,N
1541870295.6,286047008.9,Y
1541870315.4,286047010.5,P
1541870335.3,286047008.8,N
1541870355.1,286047008.6,N
1541870375.9,286047006.6,N
1541870395.7,286047006.9,N
1541870415.5,286047009.0,Y
1541870435.4,286047002.8,P
1541870455.2,286047003.1,N
1541870475.0,286047001.3,N
1541870476.0,286047001.3,N
1541870495.8,286047004.2,N
1541870515.6,286047003.7,N
1541870535.5,286047000.2,N
1541870555.3,286047002.3,N
1541870575.1,286046999.7,N
1541870595.9,286046998.7,N
1541870615.7,286046996.7,N
1541870635.5,286046997.4,N
1541870655.4,286046995.1,N
1541870675.2,286046997.3,N
1541870695.1,286046998.2,N
1541870696.0,286046998.2,N
1541870715.8,286047000.8,N
1541870735.6,286046999.4,N
1541870755.5,286046997.7,N
1541870775.3,286046997.3,N
1541870795.2,286046998.8,N
1541870815.9,286046998.4,N
1541870835.7,286046996.6,N
1541870855.6,286046997.4,N
1541870875.4,286046996.2,N
1541870895.2,286046994.1,N
1541870915.1,286046994.4,N
1541870916.0,286046994.4,N
1541870935.8,286046991.9,N
1541870955.7,286046992.4,N
1541870975.5,286046991.9,N
1541870995.3,286046994.3,N
1541871015.2,286046994.6,N
1541871035.0,286046993.3,N
1541871035.9,286046993.3,N
1541871055.8,286046994.6,N
1541871075.6,286046994.0,N
1541871095.4,286046996.7,N
1541871115.3,286046997.3,N
1541871135.1,286046996.2,N
1541871155.8,286046994.9,N
1541871175.7,286046997.1,N
1541871195.5,286046997.9,N
1541871215.4,286046996.1,N
1541871235.2,286046991.9,Y
1541871255.0,286046997.3,P
1541871255.9,286046997.3,P
1541871275.8,286046997.2,P
1541871295.6,286046999.3,N
1541871315.4,286046995.4,Y
1541871335.3,286046997.3,P
1541871355.1,286046999.0,P
1541871375.9,286047001.9,N
1541871395.7,286046998.1,N
1541871415.5,286047000.8,N
1541871435.4,286047000.4,N
1541871455.2,286047000.3,N
1541871475.0,286046998.5,N
1541871475.9,286046998.5,N
1541871495.8,286046998.4,N
1541871515.6,286046998.7,N
1541871535.5,286046998.8,N
1541871555.3,286047003.6,N
1541871575.1,286047002.9,N
1541871595.9,286047005.8,Y
1541871615.7,286047005.8,P
1541871635.6,286047005.9,N
1541871655.4,286047002.9,N
1541871675.2,286047003.7,N
1541871695.1,286047002.9,N
1541871696.0,286047002.9,N
1541871715.8,286047001.6,N
1541871735.6,286047000.1,N
1541871755.5,286047002.1,N
1541871775.3,286046999.8,N
1541871795.2,286047001.7,N
1541871815.9,286047004.0,N
1541871835.7,286047000.1,N
1541871855.6,286047002.7,N
1541871875.4,286047002.5,N
1541871895.2,286047001.5,N
1541871915.1,286047002.2,N
1541871916.0,286047002.2,N
1541871935.8,286047002.1,N
1541871955.7,286047002.6,N
1541871975.5,286047006.0,Y
1541871995.3,286047003.5,P
1541872015.2,286047005.7,P
1541872035.0,286047003.0,N
1541872035.9,286047003.0,N
1541872055.7,286047002.1,N
1541872075.6,286047000.6,N
1541872095.4,286046998.9,N
1541872115.3,286046999.4,N
1541872135.1,286046999.3,N
1541872136.0,286046999.3,N
1541872155.8,286046997.9,N
1541872175.7,286046995.6,N
1541872195.5,286046996.4,N
1541872215.3,286046994.3,N
1541872235.2,286046992.8,N
1541872255.0,286046991.0,N
1541872255.9,286046991.0,N
1541872275.8,286046991.2,N
1541872295.6,286046989.8,N
1541872315.4,286046987.5,N
1541872335.3,286046987.7,N
1541872355.1,286046988.1,N
1541872375.8,286046985.6,N
1541872395.7,286046986.6,N
1541872415.5,286046986.4,N
1541872435.4,286046984.8,N
1541872455.2,286046985.3,N
1541872475.0,286046984.1,N
1541872475.9,286046984.1,N
1541872495.8,286046986.6,N
1541872515.6,286046987.7,N
1541872535.4,286046987.9,N
1541872555.3,286046987.6,N
1541872575.1,286046988.9,N
1541872595.9,286046990.2,N
1541872615.7,286046991.0,N
1541872635.5,286046988.5,N
1541872655.4,286046990.8,N
1541872675.2,286046988.6,N
1541872695.0,286046993.0,N
1541872695.9,286046993.0,N
1541872715.8,286046991.4,N
1541872735.6,286046993.2,N
1541872755.5,286046994.3,N
1541872775.3,286046993.7,N
1541872795.1,286046991.8,N
